Location: Bogis-Bossey
(46.3500°N, 6.1667°E)
Time: 17:31:21
(UTC+00:00)

Cosmos 44 - Pass Details

Date: 17 August 2022
Orbit: 594 x 766 km, 65.1° (Epoch: 01 October)

Event Time Altitude Azimuth Distance (km) Brightness Sun altitude
Rises 21:35:17 0° 316° (NW) 2,852 7.8 -24.2°
Reaches altitude 10° 21:37:40 10° 307° (NW) 1,957 6.5 -24.5°
Maximum altitude 21:41:36 33° 243° (WSW) 1,046 4.2 -24.8°
Enters shadow 21:41:36 33° 243° (WSW) 1,046 4.2 -24.8°
